Weather History for Dumas, TX

Change the Weather History Date:

Tuesday, August 21, 2012

  Actual Average (KBGD) Record (KBGD)
Temperature  
Mean Temperature 66 °F 79 °F  
Max Temperature 73 °F 92 °F 101 °F (2003)
Min Temperature 60 °F 67 °F 50 °F (1956)
Degree Days  
Heating Degree Days 0 0  
Month to date heating degree days 0  
Since 1 June heating degree days 3  
Since 1 July heating degree days 0  
Cooling Degree Days 2 14  
Month to date cooling degree days 337  
Year to date cooling degree days 1418  
Since 1 June cooling degree days 1221  
Growing Degree Days 16 (Base 50)    
Moisture  
Dew Point 61 °F    
Average Humidity 84    
Maximum Humidity 100    
Minimum Humidity 65    
Precipitation  
Precipitation 0.00 in 0.12 in 0.99 in (1983)
Month to date precipitation 2.08  
Year to date precipitation 14.92  
Snow  
Snow 0.00 in - 0.00 in (2013)
Month to date snowfall  
Since 1 June snowfall  
Since 1 July snowfall  
Snow Depth -    
Sea Level Pressure  
Sea Level Pressure 30.13 in    
Wind  
Wind Speed 10 mph (SSE)    
Max Wind Speed 15 mph    
Max Gust Speed 20 mph    
Visibility 8 miles    
Events      
T = Trace of Precipitation, MM = Missing Value Source: NWS Daily Summary

Daily Weather History Graph

Daily Weather History Graph

Search for Another Location

Airport:

Trip Planner

Search our weather history database for the weather conditions in past years. The results will help you decide how hot, cold, wet, or windy it might be!

Date:

Astronomy

Aug. 21, 2012 Rise Set
Actual Time 7:11 AM CDT 8:29 PM CDT
Civil Twilight 6:45 AM CDT 8:56 PM CDT
Nautical Twilight 6:13 AM CDT 9:28 PM CDT
Astronomical Twilight 5:39 AM CDT 10:01 PM CDT
Moon 11:33 AM CDT (8/21) 10:43 PM CDT (8/21)
Length of Visible Light 14h 11m
Length of Day
13h 17m
Waxing Crescent, 19% of the Moon is Illuminated
Aug 21
Waxing Crescent
Aug 24
First Quarter
Aug 31
Full
Sep 8
Last Quarter
Sep 15
New

Hourly Weather History & Observations

Time (CDT) Temp. Dew Point Humidity Pressure Visibility Wind Dir Wind Speed Gust Speed Precip Events Conditions
12:15 AM 64.4 °F 62.6 °F 94% 30.08 in 10.0 mi SSE 8.1 mph - N/A   Mostly Cloudy
12:35 AM 64.4 °F 62.6 °F 94% 30.07 in 7.0 mi SSE 10.4 mph - N/A   Scattered Clouds
12:55 AM 64.4 °F 62.6 °F 94% 30.08 in 7.0 mi SSE 11.5 mph - N/A   Clear
1:15 AM 64.4 °F 62.6 °F 94% 30.09 in 10.0 mi SSE 10.4 mph - N/A   Light Drizzle
1:35 AM 64.4 °F 62.6 °F 94% 30.10 in 10.0 mi SE 9.2 mph - N/A   Clear
1:55 AM 64.4 °F 62.6 °F 94% 30.10 in 10.0 mi SE 9.2 mph - N/A   Mostly Cloudy
2:15 AM 64.4 °F 60.8 °F 88% 30.10 in 10.0 mi SSE 13.8 mph - N/A   Overcast
2:35 AM 64.4 °F 62.6 °F 94% 30.10 in 10.0 mi SE 13.8 mph - N/A   Overcast
2:55 AM 64.4 °F 62.6 °F 94% 30.10 in 10.0 mi SE 13.8 mph - N/A   Overcast
3:15 AM 64.4 °F 62.6 °F 94% 30.10 in 10.0 mi SE 10.4 mph - N/A   Overcast
3:35 AM 62.6 °F 60.8 °F 94% 30.10 in 10.0 mi SE 12.7 mph - N/A   Overcast
3:55 AM 62.6 °F 60.8 °F 94% 30.10 in 10.0 mi SE 13.8 mph - N/A   Overcast
4:15 AM 62.6 °F 60.8 °F 94% 30.09 in 10.0 mi SE 12.7 mph - N/A   Overcast
4:35 AM 62.6 °F 60.8 °F 94% 30.09 in 10.0 mi SE 11.5 mph 16.1 mph N/A   Overcast
4:55 AM 62.6 °F 60.8 °F 94% 30.09 in 7.0 mi SE 10.4 mph - N/A   Overcast
5:15 AM 62.6 °F 60.8 °F 94% 30.10 in 7.0 mi ESE 9.2 mph - N/A   Overcast
5:35 AM 62.6 °F 60.8 °F 94% 30.10 in 5.0 mi ESE 9.2 mph - N/A   Overcast
5:55 AM 62.6 °F 60.8 °F 94% 30.10 in 5.0 mi SE 10.4 mph - N/A   Overcast
6:15 AM 62.6 °F 60.8 °F 94% 30.10 in 7.0 mi SE 9.2 mph - N/A   Overcast
6:35 AM 62.6 °F 60.8 °F 94% 30.11 in 5.0 mi SE 8.1 mph - N/A   Overcast
6:55 AM 62.6 °F 60.8 °F 94% 30.11 in 5.0 mi SE 8.1 mph - N/A   Overcast
7:15 AM 62.6 °F 60.8 °F 94% 30.11 in 5.0 mi ESE 9.2 mph - N/A   Overcast
7:35 AM 62.6 °F 60.8 °F 94% 30.11 in 5.0 mi SE 9.2 mph - N/A   Overcast
7:55 AM 62.6 °F 60.8 °F 94% 30.12 in 3.0 mi SE 10.4 mph - N/A   Overcast
8:15 AM 62.6 °F 60.8 °F 94% 30.13 in 3.0 mi SE 12.7 mph - N/A   Overcast
8:35 AM 62.6 °F 60.8 °F 94% 30.14 in 2.0 mi SE 11.5 mph - N/A   Overcast
8:55 AM 62.6 °F 60.8 °F 94% 30.15 in 4.0 mi SE 10.4 mph - N/A   Overcast
9:15 AM 62.6 °F 60.8 °F 94% 30.15 in 4.0 mi SE 12.7 mph - N/A   Overcast
9:35 AM 62.6 °F 60.8 °F 94% 30.15 in 3.0 mi SE 11.5 mph - N/A   Overcast
9:55 AM 62.6 °F 60.8 °F 94% 30.15 in 2.0 mi SSE 12.7 mph - N/A   Overcast
10:15 AM 62.6 °F 60.8 °F 94% 30.15 in 2.0 mi SSE 10.4 mph - N/A   Overcast
10:35 AM 62.6 °F 60.8 °F 94% 30.15 in 2.5 mi SSE 9.2 mph - N/A   Overcast
10:55 AM 64.4 °F 60.8 °F 88% 30.15 in 4.0 mi South 8.1 mph - N/A   Overcast
11:15 AM 64.4 °F 60.8 °F 88% 30.16 in 5.0 mi South 9.2 mph - N/A   Overcast
11:35 AM 68.0 °F 60.8 °F 78% 30.16 in 7.0 mi South 8.1 mph - N/A   Overcast
11:55 AM 68.0 °F 60.8 °F 78% 30.17 in 10.0 mi South 8.1 mph - N/A   Overcast
12:15 PM 69.8 °F 60.8 °F 73% 30.16 in 10.0 mi SSE 5.8 mph - N/A   Overcast
12:35 PM 69.8 °F 62.6 °F 78% 30.16 in 10.0 mi South 8.1 mph - N/A   Mostly Cloudy
12:55 PM 69.8 °F 60.8 °F 73% 30.16 in 10.0 mi South 3.5 mph - N/A   Overcast
1:15 PM 71.6 °F 60.8 °F 69% 30.16 in 10.0 mi SE 6.9 mph - N/A   Overcast
1:35 PM 71.6 °F 60.8 °F 69% 30.16 in 10.0 mi SE 5.8 mph - N/A   Mostly Cloudy
1:55 PM 73.4 °F 60.8 °F 65% 30.15 in 10.0 mi SSE 6.9 mph - N/A   Mostly Cloudy
2:15 PM 71.6 °F 60.8 °F 69% 30.15 in 10.0 mi SSE 8.1 mph - N/A   Mostly Cloudy
2:35 PM 71.6 °F 60.8 °F 69% 30.15 in 10.0 mi SSE 10.4 mph - N/A   Overcast
2:55 PM 73.4 °F 60.8 °F 65% 30.15 in 10.0 mi SSE 9.2 mph 16.1 mph N/A   Mostly Cloudy
3:15 PM 71.6 °F 60.8 °F 69% 30.15 in 10.0 mi SSE 9.2 mph - N/A   Overcast
3:35 PM 71.6 °F 60.8 °F 69% 30.14 in 10.0 mi SSE 11.5 mph - N/A   Overcast
3:55 PM 71.6 °F 60.8 °F 69% 30.14 in 10.0 mi SSE 11.5 mph - N/A   Overcast
4:15 PM 71.6 °F 60.8 °F 69% 30.14 in 10.0 mi SE 9.2 mph - N/A   Overcast
4:55 PM 73.4 °F 60.8 °F 65% 30.13 in 10.0 mi SE 13.8 mph - N/A   Overcast
5:15 PM 73.4 °F 60.8 °F 65% 30.13 in 10.0 mi SE 15.0 mph 19.6 mph N/A   Mostly Cloudy
5:35 PM 73.4 °F 60.8 °F 65% 30.12 in 10.0 mi SSE 11.5 mph - N/A   Scattered Clouds
5:55 PM 73.4 °F 60.8 °F 65% 30.12 in 10.0 mi SE 10.4 mph 17.3 mph N/A   Scattered Clouds
6:15 PM 71.6 °F 60.8 °F 69% 30.12 in 10.0 mi SE 12.7 mph - N/A   Scattered Clouds
6:35 PM 71.6 °F 60.8 °F 69% 30.12 in 10.0 mi SE 12.7 mph - N/A   Scattered Clouds
6:55 PM 69.8 °F 60.8 °F 73% 30.12 in 10.0 mi SSE 12.7 mph - N/A   Mostly Cloudy
7:15 PM 71.6 °F 60.8 °F 69% 30.12 in 10.0 mi SSE 12.7 mph - N/A   Mostly Cloudy
7:35 PM 69.8 °F 60.8 °F 73% 30.13 in 10.0 mi SSE 13.8 mph 17.3 mph N/A   Mostly Cloudy
7:55 PM 69.8 °F 60.8 °F 73% 30.13 in 10.0 mi SSE 12.7 mph - N/A   Scattered Clouds
8:15 PM 68.0 °F 60.8 °F 78% 30.13 in 10.0 mi SSE 12.7 mph - N/A   Clear
8:35 PM 68.0 °F 60.8 °F 78% 30.14 in 10.0 mi SSE 9.2 mph - N/A   Clear
8:55 PM 66.2 °F 60.8 °F 83% 30.14 in 10.0 mi SSE 9.2 mph - N/A   Clear
9:15 PM 64.4 °F 60.8 °F 88% 30.15 in 10.0 mi SSE 9.2 mph - N/A   Clear
9:35 PM 64.4 °F 60.8 °F 88% 30.15 in 10.0 mi SE 5.8 mph - N/A   Clear
9:55 PM 64.4 °F 60.8 °F 88% 30.16 in 10.0 mi SSE 6.9 mph - N/A   Clear
10:15 PM 62.6 °F 60.8 °F 94% 30.16 in 7.0 mi SSE 4.6 mph - N/A   Clear
10:35 PM 62.6 °F 60.8 °F 94% 30.17 in 7.0 mi South 5.8 mph - N/A   Clear
10:55 PM 62.6 °F 60.8 °F 94% 30.18 in 7.0 mi South 4.6 mph - N/A   Clear
11:15 PM 60.8 °F 59.0 °F 94% 30.17 in 5.0 mi South 5.8 mph - N/A   Clear
11:35 PM 60.8 °F 60.8 °F 100% 30.17 in 5.0 mi South 6.9 mph - N/A   Clear
11:55 PM 62.6 °F 60.8 °F 94% 30.18 in 5.0 mi South 8.1 mph - N/A   Clear